contact: severine.martini@mio.osupytheas.fr, dominique.lefevre@mio.osupytheas.fr
Project:EMSO Ligure-ouest http://www.emso-fr.org/EMSO-France
Sensor Aquadopp, Serial 05974 
DOI : "https://doi.org/10.17882/97948" 
Title:EMSO Western Ligurian : Data Bathybot Aquadopp sensor - deploiement 2023-04-28
Datetime,Profondeur,Latitude,Longitude,X_East,Y_North,Z_up,Amplitude_X,Amplitude_Y,Amplitude_Z,Batterie,Sound_Speed,Heading,Pitch,Roll,Pressure,Temperature,Fluorescence,Speed,Direction
time,m,degree_north,degree_east,m.s-1,m.s-1,m.s-1,1,1,1,Volt,m.s-1,degree,degree,degree,dbar,degree_C,arbitrary units (a.u.),m.s-1,degree
2023-11-24T00:03:13,2420,42.8014,5.9826,0.215,0.201,3.923,155.0,151.0,152.0,11.8,1504.7,271.9,-0.8,0.9,2485.352,13.28,763.0,0.294,46.9
2023-11-24T00:06:13,2420,42.8014,5.9826,0.354,0.063,3.974,155.0,151.0,152.0,11.8,1504.7,271.8,-0.8,0.9,2485.625,13.28,767.0,0.36,79.9
2023-11-24T00:09:14,2420,42.8014,5.9826,0.604,0.279,3.318,155.0,151.0,152.0,11.8,1504.7,271.9,-0.8,0.9,2485.328,13.28,775.0,0.665,65.2
2023-11-24T00:12:14,2420,42.8014,5.9826,0.336,0.048,3.987,155.0,151.0,152.0,11.8,1504.7,272.0,-0.9,0.9,2485.53,13.28,775.0,0.339,81.9
2023-11-24T00:15:14,2420,42.8014,5.9826,0.439,0.044,3.892,155.0,151.0,152.0,11.8,1504.7,271.9,-0.8,0.9,2485.587,13.28,771.0,0.441,84.3
2023-11-24T00:18:14,2420,42.8014,5.9826,0.692,0.035,3.645,155.0,152.0,152.0,11.8,1504.7,271.8,-0.8,0.9,2485.217,13.28,768.0,0.693,87.1
2023-11-24T00:21:14,2420,42.8014,5.9826,0.296,0.053,4.072,155.0,151.0,152.0,11.8,1504.7,271.9,-0.8,0.9,2485.591,13.28,787.0,0.301,79.8
2023-11-24T00:24:14,2420,42.8014,5.9826,0.257,0.055,4.118,154.0,151.0,152.0,11.8,1504.7,271.9,-0.8,0.9,2485.225,13.28,842.0,0.263,77.9
2023-11-24T00:27:13,2420,42.8014,5.9826,0.106,-0.445,3.386,155.0,151.0,152.0,11.8,1504.7,271.8,-0.8,0.9,2485.697,13.28,1024.0,0.457,166.6
2023-11-24T00:30:13,2420,42.8014,5.9826,0.156,0.296,3.691,155.0,151.0,152.0,11.8,1504.7,271.8,-0.8,0.9,2485.135,13.28,2131.0,0.335,27.8
2023-11-24T00:33:13,2420,42.8014,5.9826,0.388,0.052,3.956,155.0,152.0,152.0,11.8,1504.7,271.9,-0.9,0.9,2485.605,13.28,3812.0,0.391,82.4
2023-11-24T00:36:13,2420,42.8014,5.9826,0.316,-0.211,3.569,155.0,151.0,152.0,11.8,1504.7,271.8,-0.9,0.9,2485.45,13.28,792.0,0.38,123.7
2023-11-24T00:39:14,2420,42.8014,5.9826,0.327,0.049,4.012,155.0,151.0,152.0,11.8,1504.7,272.0,-0.8,0.9,2485.39,13.28,982.0,0.331,81.5
2023-11-24T00:42:14,2420,42.8014,5.9826,0.494,0.037,3.896,155.0,151.0,152.0,11.8,1504.7,271.9,-0.8,0.9,2484.916,13.28,772.0,0.495,85.7
2023-11-24T00:45:14,2420,42.8014,5.9826,0.345,0.048,3.982,155.0,151.0,152.0,11.8,1504.7,272.0,-0.8,0.9,2485.514,13.28,1621.0,0.348,82.1
2023-11-24T00:48:14,2420,42.8014,5.9826,0.456,0.057,3.914,154.0,151.0,152.0,11.8,1504.7,271.9,-0.9,0.9,2485.249,13.28,1886.0,0.46,82.9
2023-11-24T00:51:13,2420,42.8014,5.9826,0.344,0.06,3.993,155.0,151.0,152.0,11.8,1504.7,271.8,-0.8,0.9,2485.518,13.28,1888.0,0.349,80.1
2023-11-24T00:54:13,2420,42.8014,5.9826,0.424,0.304,3.459,155.0,151.0,152.0,11.8,1504.7,271.8,-0.8,0.8,2485.566,13.28,2128.0,0.522,54.4
2023-11-24T00:57:13,2420,42.8014,5.9826,0.388,0.045,3.123,155.0,151.0,152.0,11.8,1504.7,271.9,-0.8,0.9,2485.105,13.28,2754.0,0.391,83.4
2023-11-24T01:03:13,2420,42.8014,5.9826,0.699,0.026,3.639,155.0,151.0,152.0,11.7,1504.7,271.9,-0.8,0.9,2485.237,13.28,2169.0,0.699,87.9
2023-11-24T01:06:14,2420,42.8014,5.9826,0.052,-0.181,3.851,155.0,152.0,152.0,11.8,1504.7,271.8,-0.8,0.9,2485.255,13.28,2561.0,0.188,164.0
2023-11-24T01:09:14,2420,42.8014,5.9826,0.5,0.056,3.884,155.0,151.0,152.0,11.8,1504.7,271.8,-0.9,0.9,2485.245,13.28,2007.0,0.503,83.6
2023-11-24T01:12:14,2420,42.8014,5.9826,0.32,0.054,4.038,155.0,151.0,152.0,11.8,1504.7,271.9,-0.8,0.9,2485.113,13.28,1702.0,0.324,80.4
2023-11-24T01:15:14,2420,42.8014,5.9826,0.297,0.066,4.018,155.0,151.0,152.0,11.7,1504.7,271.8,-0.8,0.9,2485.396,13.28,1799.0,0.304,77.5
2023-11-24T01:18:14,2420,42.8014,5.9826,0.393,0.065,3.919,155.0,151.0,152.0,11.8,1504.7,271.8,-0.8,0.9,2485.107,13.28,1838.0,0.398,80.6
2023-11-24T01:21:13,2420,42.8014,5.9826,0.506,0.022,3.785,155.0,151.0,152.0,11.8,1504.7,271.9,-0.8,0.8,2485.215,13.28,1843.0,0.506,87.5
2023-11-24T01:24:13,2420,42.8014,5.9826,0.197,0.08,4.155,155.0,151.0,152.0,11.8,1504.7,271.9,-0.8,0.9,2485.293,13.28,2185.0,0.212,67.9
2023-11-24T01:27:13,2420,42.8014,5.9826,0.447,0.043,3.898,155.0,151.0,152.0,11.8,1504.7,271.8,-0.8,0.9,2484.85,13.28,2568.0,0.449,84.5
2023-11-24T01:30:13,2420,42.8014,5.9826,0.592,0.048,3.742,155.0,151.0,152.0,11.8,1504.7,271.9,-0.8,0.9,2485.187,13.28,2067.0,0.594,85.4
2023-11-24T01:33:13,2420,42.8014,5.9826,0.302,0.062,4.084,155.0,151.0,152.0,11.8,1504.7,271.9,-0.8,0.9,2485.394,13.28,2863.0,0.308,78.4
2023-11-24T01:36:13,2420,42.8014,5.9826,0.203,0.069,4.123,155.0,151.0,152.0,11.8,1504.7,271.8,-0.9,0.9,2485.884,13.28,2206.0,0.214,71.2
2023-11-24T01:39:13,2420,42.8014,5.9826,0.488,0.288,3.412,155.0,151.0,152.0,11.8,1504.7,271.8,-0.8,0.9,2485.332,13.28,2055.0,0.567,59.5
2023-11-24T01:42:14,2420,42.8014,5.9826,0.476,0.033,3.839,155.0,151.0,152.0,11.8,1504.7,271.9,-0.8,0.9,2485.47,13.28,1985.0,0.477,86.0
2023-11-24T01:45:14,2420,42.8014,5.9826,0.366,0.07,3.979,155.0,151.0,152.0,11.8,1504.7,271.8,-0.8,0.9,2485.358,13.28,2238.0,0.373,79.2
2023-11-24T01:48:14,2420,42.8014,5.9826,0.358,0.076,3.969,155.0,152.0,152.0,11.8,1504.7,271.8,-0.8,0.9,2485.791,13.28,1732.0,0.366,78.0
2023-11-24T01:51:14,2420,42.8014,5.9826,0.379,0.059,3.941,155.0,151.0,152.0,11.8,1504.7,271.8,-0.8,0.9,2485.436,13.28,2227.0,0.384,81.2
2023-11-24T01:54:13,2420,42.8014,5.9826,0.306,0.307,3.57,155.0,152.0,152.0,11.8,1504.7,271.8,-0.9,0.9,2485.324,13.28,2053.0,0.433,44.9
2023-11-24T01:57:13,2420,42.8014,5.9826,0.279,0.079,4.083,155.0,151.0,152.0,11.8,1504.7,271.9,-0.8,0.9,2485.42,13.28,1743.0,0.29,74.2
2023-11-24T02:03:13,2420,42.8014,5.9826,0.301,0.072,4.009,155.0,151.0,152.0,11.8,1504.7,271.8,-0.8,0.9,2485.432,13.28,1728.0,0.309,76.5
2023-11-24T02:06:13,2420,42.8014,5.9826,0.267,-0.203,3.65,155.0,151.0,152.0,11.8,1504.7,271.8,-0.8,0.9,2485.334,13.28,1599.0,0.335,127.2
2023-11-24T02:09:13,2420,42.8014,5.9826,0.398,0.278,3.507,155.0,151.0,152.0,11.8,1504.7,271.8,-0.8,0.8,2485.458,13.28,1671.0,0.485,55.1
2023-11-24T02:12:13,2420,42.8014,5.9826,0.224,0.079,4.101,155.0,151.0,152.0,11.8,1504.7,271.9,-0.8,0.9,2485.33,13.28,1790.0,0.237,70.6
2023-11-24T02:15:14,2420,42.8014,5.9826,0.316,0.055,4.022,155.0,152.0,152.0,11.8,1504.7,271.8,-0.9,0.9,2485.621,13.28,1589.0,0.321,80.1
2023-11-24T02:18:14,2420,42.8014,5.9826,0.294,0.057,4.067,155.0,151.0,152.0,11.8,1504.7,271.8,-0.8,0.9,2485.396,13.28,1282.0,0.299,79.0
2023-11-24T02:21:14,2420,42.8014,5.9826,0.432,0.049,3.935,155.0,151.0,152.0,11.8,1504.7,271.8,-0.9,0.8,2485.585,13.28,1218.0,0.435,83.5
2023-11-24T02:24:14,2420,42.8014,5.9826,0.389,0.059,3.978,155.0,151.0,152.0,11.8,1504.7,271.8,-0.8,0.8,2485.046,13.28,1204.0,0.393,81.4
2023-11-24T02:27:14,2420,42.8014,5.9826,0.211,0.057,4.139,155.0,151.0,152.0,11.8,1504.7,271.8,-0.8,0.9,2485.48,13.28,1683.0,0.218,74.9
2023-11-24T02:30:14,2420,42.8014,5.9826,0.337,0.058,3.99,155.0,151.0,152.0,11.8,1504.7,271.8,-0.8,0.9,2485.581,13.28,2735.0,0.342,80.2
2023-11-24T02:33:13,2420,42.8014,5.9826,0.401,0.048,3.952,155.0,152.0,152.0,11.8,1504.7,271.8,-0.9,0.9,2485.631,13.28,1319.0,0.404,83.2
2023-11-24T02:36:13,2420,42.8014,5.9826,0.475,0.045,3.843,155.0,151.0,152.0,11.8,1504.7,271.8,-0.8,0.9,2486.191,13.28,1255.0,0.477,84.6
2023-11-24T02:39:13,2420,42.8014,5.9826,0.276,0.066,4.018,155.0,151.0,152.0,11.8,1504.7,271.8,-0.8,0.9,2485.267,13.28,1308.0,0.284,76.6
2023-11-24T02:42:14,2420,42.8014,5.9826,0.408,0.062,3.921,155.0,151.0,152.0,11.8,1504.7,271.9,-0.8,0.9,2485.568,13.28,1442.0,0.413,81.4
2023-11-24T02:45:14,2420,42.8014,5.9826,0.561,0.041,3.778,155.0,152.0,152.0,11.8,1504.7,271.9,-0.8,0.9,2485.346,13.28,1430.0,0.562,85.8
2023-11-24T02:48:14,2420,42.8014,5.9826,0.334,0.06,3.991,155.0,151.0,152.0,11.8,1504.7,271.8,-0.8,0.9,2485.534,13.28,1547.0,0.339,79.8
2023-11-24T02:51:14,2420,42.8014,5.9826,0.171,0.29,3.787,155.0,151.0,152.0,11.8,1504.7,271.9,-0.8,0.9,2485.352,13.28,1639.0,0.337,30.5
2023-11-24T02:54:13,2420,42.8014,5.9826,0.484,0.035,3.861,155.0,151.0,152.0,11.8,1504.7,271.8,-0.9,0.9,2485.135,13.28,1618.0,0.485,85.9
2023-11-24T02:57:13,2420,42.8014,5.9826,0.349,0.059,4.009,155.0,152.0,152.0,11.8,1504.7,271.8,-0.8,0.9,2485.51,13.28,1525.0,0.354,80.4
2023-11-24T03:03:14,2420,42.8014,5.9826,0.413,0.059,3.936,155.0,151.0,152.0,11.8,1504.7,271.8,-0.9,0.9,2485.474,13.28,9414.0,0.417,81.9
2023-11-24T03:06:14,2420,42.8014,5.9826,0.35,0.047,4.007,155.0,151.0,152.0,11.7,1504.7,271.8,-0.8,0.9,2485.502,13.28,8596.0,0.353,82.4
2023-11-24T03:09:14,2420,42.8014,5.9826,0.438,0.04,3.894,155.0,151.0,152.0,11.8,1504.7,271.9,-0.8,0.9,2485.829,13.28,10906.0,0.44,84.8
2023-11-24T03:12:14,2420,42.8014,5.9826,0.428,0.055,3.897,155.0,151.0,152.0,11.8,1504.7,271.8,-0.8,0.9,2485.767,13.28,11005.0,0.432,82.7
2023-11-24T03:15:14,2420,42.8014,5.9826,0.331,0.078,3.953,155.0,151.0,152.0,11.8,1504.7,271.9,-0.8,0.8,2485.566,13.28,11631.0,0.34,76.7
2023-11-24T03:18:13,2420,42.8014,5.9826,0.249,0.036,4.01,155.0,151.0,152.0,11.8,1504.7,271.9,-0.8,0.9,2485.581,13.28,13764.0,0.251,81.8
2023-11-24T03:21:13,2420,42.8014,5.9826,0.352,0.055,3.939,155.0,151.0,152.0,11.8,1504.7,271.8,-0.8,0.9,2485.253,13.28,767.0,0.356,81.1
2023-11-24T03:24:13,2420,42.8014,5.9826,0.324,0.068,4.003,155.0,151.0,152.0,11.8,1504.7,271.9,-0.8,0.9,2485.783,13.28,768.0,0.331,78.1
2023-11-24T03:27:13,2420,42.8014,5.9826,0.415,0.049,3.908,155.0,151.0,152.0,11.8,1504.7,271.9,-0.8,0.9,2485.412,13.28,769.0,0.418,83.3
2023-11-24T03:30:13,2420,42.8014,5.9826,0.316,0.053,4.001,155.0,151.0,152.0,11.8,1504.7,271.8,-0.8,0.9,2485.725,13.28,765.0,0.32,80.5
2023-11-24T03:33:13,2420,42.8014,5.9826,0.452,0.058,3.865,155.0,151.0,152.0,11.7,1504.7,271.8,-0.9,0.9,2485.436,13.28,773.0,0.456,82.7
2023-11-24T03:36:13,2420,42.8014,5.9826,0.336,0.049,4.022,155.0,151.0,152.0,11.7,1504.7,271.8,-0.9,0.9,2485.374,13.28,1406.0,0.34,81.7
2023-11-24T03:39:14,2420,42.8014,5.9826,0.33,0.063,4.006,155.0,151.0,152.0,11.8,1504.7,271.8,-0.9,0.9,2485.318,13.28,777.0,0.336,79.2
2023-11-24T03:42:14,2420,42.8014,5.9826,0.319,0.054,3.971,155.0,151.0,152.0,11.7,1504.7,271.9,-0.8,0.9,2485.352,13.28,759.0,0.323,80.4
2023-11-24T03:45:14,2420,42.8014,5.9826,0.279,0.05,4.076,155.0,152.0,152.0,11.8,1504.7,271.8,-0.8,0.9,2485.635,13.28,771.0,0.283,79.8
2023-11-24T03:48:14,2420,42.8014,5.9826,0.344,-0.199,3.567,155.0,151.0,152.0,11.8,1504.7,271.8,-0.8,0.9,2485.468,13.28,766.0,0.397,120.0
2023-11-24T03:51:14,2420,42.8014,5.9826,0.233,0.059,4.059,155.0,151.0,152.0,11.8,1504.7,271.8,-0.8,0.9,2485.587,13.28,767.0,0.24,75.8
2023-11-24T03:54:14,2420,42.8014,5.9826,0.241,0.051,4.052,155.0,151.0,152.0,11.8,1504.7,271.9,-0.8,0.9,2485.4,13.28,776.0,0.246,78.1
2023-11-24T03:57:13,2420,42.8014,5.9826,0.451,-0.21,3.439,155.0,152.0,152.0,11.7,1504.7,271.8,-0.8,0.9,2485.605,13.28,764.0,0.497,115.0
2023-11-24T04:03:14,2420,42.8014,5.9826,0.642,0.043,3.638,155.0,151.0,152.0,11.8,1504.7,272.0,-0.8,0.9,2485.727,13.28,764.0,0.643,86.2
2023-11-24T04:06:13,2420,42.8014,5.9826,0.213,0.293,3.667,155.0,151.0,152.0,11.8,1504.7,271.8,-0.8,0.9,2485.396,13.28,790.0,0.362,36.0
2023-11-24T04:09:13,2420,42.8014,5.9826,0.294,0.058,4.007,155.0,151.0,152.0,11.8,1504.7,271.8,-0.9,0.9,2485.577,13.28,774.0,0.3,78.8
2023-11-24T04:12:13,2420,42.8014,5.9826,0.369,0.059,3.933,155.0,151.0,152.0,11.8,1504.7,271.9,-0.8,0.9,2485.366,13.28,772.0,0.374,80.9
2023-11-24T04:15:14,2420,42.8014,5.9826,0.25,0.08,4.081,155.0,152.0,152.0,11.8,1504.7,271.8,-0.8,0.9,2485.462,13.28,776.0,0.262,72.3
2023-11-24T04:18:14,2420,42.8014,5.9826,0.436,0.079,3.833,155.0,152.0,152.0,11.8,1504.7,271.9,-0.8,0.9,2485.263,13.28,772.0,0.443,79.7
2023-11-24T04:21:14,2420,42.8014,5.9826,0.328,-0.189,3.549,155.0,151.0,152.0,11.8,1504.7,271.9,-0.8,0.9,2485.715,13.28,761.0,0.379,120.0
2023-11-24T04:24:14,2420,42.8014,5.9826,0.308,0.055,3.964,155.0,151.0,152.0,11.8,1504.7,271.8,-0.8,0.9,2485.595,13.28,758.0,0.313,79.9
2023-11-24T04:27:14,2420,42.8014,5.9826,0.279,0.046,4.076,155.0,151.0,152.0,11.8,1504.7,271.8,-0.8,0.9,2485.474,13.28,767.0,0.283,80.6
2023-11-24T04:30:13,2420,42.8014,5.9826,0.32,0.076,3.984,155.0,151.0,152.0,11.8,1504.7,271.8,-0.8,0.9,2485.536,13.28,775.0,0.329,76.6
2023-11-24T04:33:13,2420,42.8014,5.9826,0.361,0.052,3.911,155.0,151.0,152.0,11.8,1504.7,271.8,-0.8,0.9,2485.404,13.28,779.0,0.365,81.8
2023-11-24T04:36:14,2420,42.8014,5.9826,0.305,0.066,3.957,155.0,151.0,152.0,11.8,1504.7,271.8,-0.9,0.9,2485.376,13.28,766.0,0.312,77.8
2023-11-24T04:39:14,2420,42.8014,5.9826,0.13,-0.169,3.732,155.0,151.0,152.0,11.8,1504.7,272.0,-0.8,0.9,2485.603,13.28,780.0,0.213,142.4
2023-11-24T04:42:14,2420,42.8014,5.9826,0.21,0.065,4.118,155.0,151.0,152.0,11.8,1504.7,271.8,-0.8,0.9,2485.86,13.28,764.0,0.219,72.8
2023-11-24T04:45:14,2420,42.8014,5.9826,0.361,0.037,3.895,155.0,152.0,152.0,11.8,1504.7,271.8,-0.9,0.9,2485.587,13.28,771.0,0.363,84.1
2023-11-24T04:48:14,2420,42.8014,5.9826,0.513,0.043,3.795,155.0,151.0,152.0,11.8,1504.7,271.9,-0.8,0.9,2485.203,13.28,777.0,0.515,85.2
2023-11-24T04:51:14,2420,42.8014,5.9826,0.384,0.075,3.862,155.0,151.0,152.0,11.8,1504.7,271.8,-0.8,0.9,2485.538,13.28,773.0,0.391,78.9
2023-11-24T04:54:14,2420,42.8014,5.9826,0.453,0.045,3.875,155.0,151.0,152.0,11.8,1504.7,271.8,-0.8,0.9,2485.623,13.28,782.0,0.455,84.3
2023-11-24T04:57:13,2420,42.8014,5.9826,0.428,0.041,3.9,155.0,151.0,152.0,11.8,1504.7,271.8,-0.8,0.9,2485.621,13.28,769.0,0.43,84.5
2023-11-24T05:03:13,2420,42.8014,5.9826,0.534,0.049,3.767,155.0,151.0,152.0,11.8,1504.7,272.0,-0.8,0.8,2485.542,13.28,782.0,0.536,84.8
2023-11-24T05:06:13,2420,42.8014,5.9826,0.324,0.055,3.975,155.0,151.0,152.0,11.8,1504.7,271.9,-0.9,0.9,2485.627,13.28,779.0,0.329,80.4
2023-11-24T05:09:13,2420,42.8014,5.9826,0.524,0.05,3.734,155.0,151.0,152.0,11.8,1504.7,271.8,-0.8,0.9,2484.998,13.28,782.0,0.526,84.6
2023-11-24T05:12:14,2420,42.8014,5.9826,0.461,0.049,3.83,155.0,151.0,152.0,11.8,1504.7,271.8,-0.8,0.9,2485.462,13.28,776.0,0.464,83.9
2023-11-24T05:15:14,2420,42.8014,5.9826,0.365,0.068,3.931,155.0,151.0,152.0,11.8,1504.7,271.8,-0.9,0.9,2485.695,13.28,771.0,0.371,79.4
2023-11-24T05:18:14,2420,42.8014,5.9826,0.092,0.304,3.836,155.0,151.0,152.0,11.8,1504.7,272.0,-0.8,0.9,2485.247,13.28,764.0,0.318,16.8
2023-11-24T05:21:14,2420,42.8014,5.9826,0.361,0.046,4.008,155.0,151.0,152.0,11.8,1504.7,271.9,-0.8,0.9,2485.364,13.28,920.0,0.364,82.7
2023-11-24T05:24:14,2420,42.8014,5.9826,0.373,0.042,3.993,155.0,151.0,152.0,11.8,1504.7,271.8,-0.8,0.9,2485.34,13.28,772.0,0.375,83.6
2023-11-24T05:27:14,2420,42.8014,5.9826,0.256,-0.183,3.627,155.0,151.0,152.0,11.8,1504.7,271.9,-0.8,0.9,2485.528,13.28,777.0,0.315,125.6
2023-11-24T05:30:14,2420,42.8014,5.9826,0.353,0.06,3.989,155.0,151.0,152.0,11.8,1504.7,271.8,-0.9,0.8,2485.366,13.28,766.0,0.358,80.4
2023-11-24T05:33:13,2420,42.8014,5.9826,0.458,0.039,3.858,155.0,151.0,152.0,11.8,1504.7,272.0,-0.8,0.9,2485.699,13.28,773.0,0.46,85.1
2023-11-24T05:36:13,2420,42.8014,5.9826,0.596,0.026,3.738,155.0,151.0,152.0,11.7,1504.7,272.0,-0.8,0.8,2485.408,13.28,777.0,0.596,87.5
2023-11-24T05:39:13,2420,42.8014,5.9826,0.417,0.047,3.889,155.0,151.0,152.0,11.8,1504.7,271.8,-0.9,0.9,2485.472,13.28,782.0,0.42,83.6
2023-11-24T05:42:13,2420,42.8014,5.9826,0.632,0.045,3.672,155.0,151.0,152.0,11.8,1504.7,271.9,-0.8,0.9,2485.514,13.28,769.0,0.634,85.9
2023-11-24T05:45:14,2420,42.8014,5.9826,0.364,0.06,3.953,155.0,151.0,152.0,11.8,1504.7,271.9,-0.8,0.9,2485.603,13.28,775.0,0.369,80.6
2023-11-24T05:48:14,2420,42.8014,5.9826,0.261,0.07,4.077,155.0,151.0,152.0,11.8,1504.7,271.8,-0.9,0.9,2485.452,13.28,771.0,0.27,75.0
2023-11-24T05:51:14,2420,42.8014,5.9826,0.43,0.075,3.915,155.0,151.0,152.0,11.8,1504.7,271.8,-0.8,0.9,2485.279,13.28,766.0,0.436,80.1
2023-11-24T05:54:14,2420,42.8014,5.9826,0.244,0.054,4.08,155.0,151.0,152.0,11.8,1504.7,271.9,-0.8,0.9,2485.579,13.28,897.0,0.249,77.5
2023-11-24T05:57:14,2420,42.8014,5.9826,0.519,0.042,3.785,155.0,151.0,152.0,11.7,1504.7,271.8,-0.8,0.8,2485.717,13.28,762.0,0.521,85.4
2023-11-24T06:03:13,2420,42.8014,5.9826,0.335,-0.196,3.541,155.0,151.0,152.0,11.8,1504.7,271.8,-0.9,0.9,2485.627,13.28,757.0,0.388,120.3
2023-11-24T06:06:13,2420,42.8014,5.9826,0.377,0.035,3.933,155.0,151.0,152.0,11.8,1504.7,271.8,-0.8,0.9,2485.627,13.28,774.0,0.379,84.7
2023-11-24T06:09:14,2420,42.8014,5.9826,0.528,0.041,3.817,155.0,151.0,152.0,11.8,1504.7,271.9,-0.8,0.9,2485.458,13.28,775.0,0.53,85.6
2023-11-24T06:12:14,2420,42.8014,5.9826,0.482,0.047,3.869,155.0,151.0,152.0,11.7,1504.7,271.9,-0.8,0.9,2485.267,13.28,768.0,0.484,84.4
2023-11-24T06:15:14,2420,42.8014,5.9826,0.609,0.069,3.708,155.0,151.0,152.0,11.8,1504.7,271.8,-0.8,0.9,2485.587,13.28,764.0,0.613,83.5
2023-11-24T06:18:14,2420,42.8014,5.9826,0.315,0.055,4.052,155.0,151.0,152.0,11.8,1504.7,271.8,-0.9,0.9,2485.426,13.28,775.0,0.32,80.1
2023-11-24T06:21:14,2420,42.8014,5.9826,0.255,0.053,4.102,155.0,151.0,152.0,11.8,1504.7,271.8,-0.8,0.9,2485.328,13.28,769.0,0.26,78.3
2023-11-24T06:24:13,2420,42.8014,5.9826,0.255,0.044,4.11,155.0,151.0,152.0,11.8,1504.7,271.9,-0.8,0.9,2485.544,13.28,771.0,0.259,80.2
2023-11-24T06:27:13,2420,42.8014,5.9826,0.305,0.086,4.008,155.0,151.0,152.0,11.8,1504.7,271.9,-0.8,0.9,2485.607,13.28,757.0,0.317,74.3
2023-11-24T06:30:13,2420,42.8014,5.9826,0.374,0.041,3.956,155.0,151.0,152.0,11.8,1504.7,271.8,-0.8,0.9,2485.464,13.28,774.0,0.376,83.7
2023-11-24T06:33:13,2420,42.8014,5.9826,0.31,0.296,3.609,155.0,151.0,152.0,11.7,1504.7,271.9,-0.8,0.9,2485.157,13.28,1179.0,0.429,46.3
2023-11-24T06:36:13,2420,42.8014,5.9826,0.526,0.049,3.835,155.0,151.0,152.0,11.8,1504.7,271.8,-0.9,0.9,2485.542,13.28,778.0,0.528,84.7
2023-11-24T06:39:13,2420,42.8014,5.9826,0.427,0.051,3.918,155.0,151.0,152.0,11.8,1504.7,271.8,-0.8,0.9,2485.639,13.28,771.0,0.43,83.2
2023-11-24T06:42:13,2420,42.8014,5.9826,0.316,0.055,3.975,155.0,151.0,152.0,11.8,1504.7,271.8,-0.9,0.9,2485.442,13.28,1024.0,0.321,80.1
2023-11-24T06:45:13,2420,42.8014,5.9826,0.626,0.035,3.69,155.0,151.0,152.0,11.8,1504.7,271.8,-0.8,0.9,2485.629,13.28,808.0,0.627,86.8
2023-11-24T06:48:14,2420,42.8014,5.9826,0.241,0.07,4.101,155.0,151.0,152.0,11.8,1504.7,271.8,-0.8,0.9,2485.524,13.28,774.0,0.25,73.8
2023-11-24T06:51:14,2420,42.8014,5.9826,0.323,0.06,4.037,155.0,151.0,152.0,11.8,1504.7,272.0,-0.8,0.9,2485.46,13.28,762.0,0.328,79.5
2023-11-24T06:54:14,2420,42.8014,5.9826,0.384,0.062,3.925,155.0,151.0,152.0,11.8,1504.7,271.8,-0.8,0.9,2485.43,13.28,810.0,0.389,80.8
2023-11-24T06:57:14,2420,42.8014,5.9826,0.319,0.053,3.958,155.0,151.0,152.0,11.8,1504.7,271.8,-0.8,0.9,2485.059,13.28,780.0,0.323,80.6
2023-11-24T07:03:13,2420,42.8014,5.9826,0.47,0.066,3.824,155.0,151.0,152.0,11.8,1504.7,271.9,-0.8,0.9,2485.392,13.28,763.0,0.475,82.0
2023-11-24T07:06:13,2420,42.8014,5.9826,0.335,0.056,3.981,155.0,151.0,152.0,11.8,1504.7,271.8,-0.8,0.9,2485.711,13.28,772.0,0.34,80.5
2023-11-24T07:09:14,2420,42.8014,5.9826,0.356,0.177,3.745,155.0,151.0,152.0,11.7,1504.7,271.9,-0.8,0.9,2485.938,13.28,774.0,0.398,63.6
2023-11-24T07:12:14,2420,42.8014,5.9826,0.578,0.04,3.74,155.0,152.0,152.0,11.8,1504.7,271.8,-0.8,0.9,2485.468,13.28,777.0,0.579,86.0
2023-11-24T07:15:14,2420,42.8014,5.9826,0.32,0.055,3.98,155.0,151.0,152.0,11.8,1504.7,271.9,-0.8,0.9,2485.601,13.28,768.0,0.325,80.2
2023-11-24T07:18:14,2420,42.8014,5.9826,0.397,0.069,3.863,155.0,152.0,153.0,11.8,1504.7,271.8,-0.8,0.9,2485.805,13.28,1365.0,0.403,80.1
2023-11-24T07:21:14,2420,42.8014,5.9826,0.324,0.05,3.946,156.0,152.0,153.0,11.8,1504.7,271.8,-0.8,0.9,2484.942,13.28,764.0,0.328,81.2
2023-11-24T07:24:14,2420,42.8014,5.9826,0.317,0.032,3.962,156.0,152.0,153.0,11.8,1504.7,271.8,-0.8,0.9,2485.444,13.28,766.0,0.319,84.2
2023-11-24T07:27:14,2420,42.8014,5.9826,0.264,0.072,4.043,155.0,152.0,153.0,11.8,1504.7,271.9,-0.8,0.9,2485.396,13.28,776.0,0.274,74.7
2023-11-24T07:30:13,2420,42.8014,5.9826,0.264,0.292,3.575,155.0,152.0,153.0,11.8,1504.7,271.9,-0.8,0.9,2485.707,13.28,785.0,0.394,42.1
2023-11-24T07:33:13,2420,42.8014,5.9826,0.312,0.071,3.971,155.0,152.0,153.0,11.8,1504.7,271.8,-0.8,0.9,2485.36,13.28,772.0,0.32,77.2
2023-11-24T07:36:14,2420,42.8014,5.9826,0.354,-0.195,3.502,155.0,152.0,152.0,11.8,1504.7,271.8,-0.8,0.9,2485.332,13.28,768.0,0.404,118.9
2023-11-24T07:39:14,2420,42.8014,5.9826,0.508,0.03,3.747,155.0,152.0,153.0,11.8,1504.7,271.8,-0.9,0.9,2485.354,13.28,782.0,0.509,86.6
2023-11-24T07:42:14,2420,42.8014,5.9826,0.587,0.043,3.677,156.0,152.0,153.0,11.8,1504.7,271.8,-0.8,0.9,2485.245,13.28,768.0,0.588,85.8
2023-11-24T07:45:14,2420,42.8014,5.9826,0.428,0.046,3.851,155.0,152.0,153.0,11.8,1504.7,271.9,-0.8,0.9,2485.454,13.28,755.0,0.43,83.9
2023-11-24T07:48:14,2420,42.8014,5.9826,0.297,0.057,4.054,155.0,152.0,153.0,11.8,1504.7,271.8,-0.8,0.9,2485.442,13.28,772.0,0.302,79.1
2023-11-24T07:51:13,2420,42.8014,5.9826,0.291,0.047,4.068,155.0,152.0,152.0,11.8,1504.7,271.8,-0.9,0.9,2485.641,13.28,788.0,0.295,80.8
2023-11-24T07:54:13,2420,42.8014,5.9826,0.293,0.057,4.025,155.0,152.0,153.0,11.8,1504.7,271.9,-0.8,0.9,2485.514,13.28,772.0,0.298,79.0
2023-11-24T07:57:13,2420,42.8014,5.9826,0.452,0.058,3.847,155.0,152.0,153.0,11.8,1504.7,271.9,-0.8,0.9,2485.452,13.28,777.0,0.456,82.7
2023-11-24T08:03:13,2420,42.8014,5.9826,0.214,0.299,3.689,155.0,152.0,153.0,11.8,1504.7,271.9,-0.8,0.9,2485.446,13.28,766.0,0.368,35.6
2023-11-24T08:06:14,2420,42.8014,5.9826,0.185,0.302,3.728,155.0,152.0,153.0,11.8,1504.7,271.8,-0.8,0.9,2485.396,13.28,759.0,0.354,31.5
2023-11-24T08:09:14,2420,42.8014,5.9826,0.224,0.051,4.091,155.0,152.0,153.0,11.8,1504.7,271.8,-0.8,0.9,2485.635,13.28,772.0,0.229,77.2
2023-11-24T08:12:14,2420,42.8014,5.9826,0.836,0.033,3.446,156.0,152.0,153.0,11.8,1504.7,271.8,-0.8,0.9,2485.5,13.28,771.0,0.837,87.7
2023-11-24T08:15:14,2420,42.8014,5.9826,0.505,0.039,3.86,156.0,152.0,153.0,11.8,1504.7,271.8,-0.8,0.9,2485.273,13.28,778.0,0.507,85.6
2023-11-24T08:18:14,2420,42.8014,5.9826,0.53,0.054,3.828,155.0,152.0,153.0,11.8,1504.7,271.8,-0.8,0.9,2485.042,13.28,764.0,0.533,84.2
2023-11-24T08:21:14,2420,42.8014,5.9826,0.31,0.057,4.026,156.0,152.0,153.0,11.8,1504.7,271.8,-0.8,0.9,2485.575,13.28,765.0,0.315,79.6
2023-11-24T08:24:13,2420,42.8014,5.9826,0.294,0.064,4.049,155.0,152.0,153.0,11.8,1504.7,271.7,-0.8,0.9,2485.442,13.28,769.0,0.301,77.7
2023-11-24T08:27:13,2420,42.8014,5.9826,0.291,0.058,4.048,156.0,152.0,153.0,11.8,1504.7,271.8,-0.9,0.9,2485.39,13.28,788.0,0.297,78.7
2023-11-24T08:30:14,2420,42.8014,5.9826,0.353,0.055,4.018,156.0,152.0,153.0,11.8,1504.7,271.8,-0.8,0.9,2485.55,13.28,773.0,0.357,81.1
2023-11-24T08:33:13,2420,42.8014,5.9826,0.239,0.07,4.134,155.0,152.0,153.0,11.8,1504.7,271.8,-0.8,0.9,2485.458,13.28,791.0,0.249,73.7
2023-11-24T08:36:13,2420,42.8014,5.9826,0.095,0.294,3.825,156.0,152.0,153.0,11.8,1504.7,271.9,-0.9,0.8,2485.556,13.28,762.0,0.309,17.9
2023-11-24T08:39:14,2420,42.8014,5.9826,0.249,0.069,4.1,155.0,152.0,153.0,11.8,1504.7,271.9,-0.8,0.9,2485.532,13.28,781.0,0.258,74.5
2023-11-24T08:42:14,2420,42.8014,5.9826,0.368,0.061,3.998,156.0,152.0,153.0,11.8,1504.7,271.9,-0.8,0.9,2485.384,13.28,772.0,0.373,80.6
2023-11-24T08:45:14,2420,42.8014,5.9826,0.31,0.046,4.027,155.0,152.0,153.0,11.8,1504.7,271.9,-0.8,0.9,2484.932,13.28,949.0,0.313,81.6
2023-11-24T08:48:14,2420,42.8014,5.9826,0.196,-0.197,3.72,155.0,152.0,153.0,11.8,1504.7,271.8,-0.8,0.9,2485.458,13.28,772.0,0.278,135.1
2023-11-24T08:51:13,2420,42.8014,5.9826,0.404,0.049,3.919,156.0,152.0,153.0,11.8,1504.7,271.8,-0.9,0.8,2485.703,13.28,775.0,0.407,83.1
2023-11-24T08:54:13,2420,42.8014,5.9826,0.442,0.033,3.944,156.0,152.0,153.0,11.8,1504.7,271.8,-0.8,0.9,2485.299,13.28,1356.0,0.443,85.7
2023-11-24T08:57:14,2420,42.8014,5.9826,0.294,0.052,4.046,156.0,152.0,153.0,11.8,1504.7,271.9,-0.8,0.9,2485.406,13.28,772.0,0.299,80.0
2023-11-24T09:03:13,2420,42.8014,5.9826,0.21,0.065,4.2,156.0,152.0,153.0,11.8,1504.7,271.8,-0.8,0.9,2485.241,13.28,780.0,0.219,72.8
2023-11-24T09:06:14,2420,42.8014,5.9826,0.46,0.284,3.491,155.0,152.0,153.0,11.8,1504.7,271.8,-0.9,0.9,2485.426,13.28,759.0,0.541,58.3